South St. Paul, MN

4:21 PM CST on November 21, 2017 (GMT -0600)
South Saint Paul Municipal-Fleming

Weather History for KSGS - March, 2014

Change the Weather History Date:

Friday, March 14, 2014

  Actual Average (KSTP) Record (KSTP)
Temperature  
Mean Temperature 38 °F -  
Max Temperature 46 °F 35 °F 73 °F (2012)
Min Temperature 30 °F 19 °F 3 °F (1997)
Degree Days  
Heating Degree Days 26    
Moisture  
Dew Point 29 °F    
Average Humidity 63    
Maximum Humidity 86    
Minimum Humidity 51    
Precipitation  
Precipitation 0.00 in - - ()
Sea Level Pressure  
Sea Level Pressure 29.67 in    
Wind  
Wind Speed 9 mph (WNW)    
Max Wind Speed 28 mph    
Max Gust Speed 38 mph    
Visibility 10 miles    
Events      
Averages and records for this station are not official NWS values.
T = Trace of Precipitation, MM = Missing Value Source: NWS Daily Summary

Daily Weather History Graph

Daily Weather History Graph

Search for Another Location

Airport or City:

Trip Planner

Search our weather history database for the weather conditions in past years. The results will help you decide how hot, cold, wet, or windy it might be!

Date:

Astronomy

Mar. 14, 2014 Rise Set
Actual Time 7:26 AM CDT 7:16 PM CDT
Civil Twilight 6:57 AM CDT 7:46 PM CDT
Nautical Twilight 6:23 AM CDT 8:20 PM CDT
Astronomical Twilight 5:48 AM CDT 8:54 PM CDT
Moon 5:36 PM CDT (3/14) 6:10 AM CDT (3/14)
Length of Visible Light 12h 48m
Length of Day
11h 50m
Waxing Gibbous, 96% of the Moon is Illuminated
Mar 14
Waxing Gibbous
Mar 16
Full
Mar 23
Last Quarter
Mar 30
New
Apr 7
First Quarter

Hourly Weather History & Observations

Time (CDT) Temp. Windchill Dew Point Humidity Pressure Visibility Wind Dir Wind Speed Gust Speed Precip Events Conditions
12:12 AM 38.5 °F 36.1 °F 34.5 °F 86% 29.51 in 10.0 mi South 3.5 mph - N/A   Clear
12:32 AM 39.0 °F 36.8 °F 32.9 °F 79% 29.50 in 10.0 mi SW 3.5 mph - N/A   Clear
12:52 AM 40.1 °F 38.0 °F 32.5 °F 74% 29.50 in 10.0 mi WSW 3.5 mph - N/A   Clear
1:12 AM 43.7 °F - 32.2 °F 64% 29.51 in 10.0 mi Calm Calm - N/A   Clear
1:32 AM 46.0 °F 41.4 °F 33.8 °F 62% 29.50 in 10.0 mi WSW 9.2 mph - N/A   Clear
1:52 AM 46.2 °F 44.1 °F 33.8 °F 62% 29.50 in 10.0 mi WSW 4.6 mph - N/A   Clear
2:12 AM 45.7 °F 42.0 °F 34.0 °F 64% 29.50 in 10.0 mi West 6.9 mph - N/A   Clear
2:32 AM 45.1 °F 42.8 °F 33.8 °F 65% 29.50 in 10.0 mi West 4.6 mph - N/A   Clear
2:52 AM 44.4 °F 40.0 °F 34.0 °F 67% 29.51 in 10.0 mi West 8.1 mph - N/A   Clear
3:12 AM 43.7 °F 41.1 °F 33.8 °F 68% 29.50 in 10.0 mi West 4.6 mph - N/A   Clear
3:32 AM 43.0 °F 40.3 °F 34.0 °F 71% 29.50 in 10.0 mi West 4.6 mph - N/A   Clear
3:52 AM 42.8 °F 41.1 °F 34.2 °F 72% 29.50 in 10.0 mi West 3.5 mph - N/A   Clear
4:12 AM 42.6 °F - 34.0 °F 71% 29.51 in 10.0 mi Calm Calm - N/A   Clear
4:32 AM 42.3 °F 39.4 °F 33.8 °F 72% 29.51 in 10.0 mi West 4.6 mph - N/A   Clear
4:52 AM 42.1 °F 40.2 °F 33.8 °F 72% 29.52 in 10.0 mi West 3.5 mph - N/A   Clear
5:12 AM 42.1 °F 40.2 °F 33.4 °F 71% 29.52 in 10.0 mi West 3.5 mph - N/A   Clear
5:32 AM 41.7 °F 38.0 °F 32.9 °F 71% 29.53 in 10.0 mi West 5.8 mph - N/A   Clear
5:52 AM 41.5 °F 37.1 °F 32.4 °F 70% 29.53 in 10.0 mi WNW 6.9 mph - N/A   Scattered Clouds
6:12 AM 41.2 °F 36.6 °F 32.0 °F 70% 29.55 in 10.0 mi West 6.9 mph - N/A   Overcast
6:32 AM 41.0 °F 34.3 °F 32.0 °F 70% 29.55 in 10.0 mi West 11.5 mph 17.3 mph N/A   Overcast
6:52 AM 41.0 °F 34.7 °F 31.8 °F 70% 29.55 in 10.0 mi West 10.4 mph - N/A   Mostly Cloudy
7:12 AM 40.5 °F 33.6 °F 31.6 °F 71% 29.57 in 10.0 mi West 11.5 mph - N/A   Scattered Clouds
7:32 AM 40.1 °F 33.2 °F 31.1 °F 70% 29.58 in 10.0 mi West 11.5 mph 18.4 mph N/A   Scattered Clouds
7:52 AM 39.7 °F 32.7 °F 31.5 °F 72% 29.59 in 10.0 mi WNW 11.5 mph 21.9 mph N/A   Mostly Cloudy
8:12 AM 39.6 °F 33.0 °F 31.6 °F 73% 29.59 in 10.0 mi WNW 10.4 mph 19.6 mph N/A   Scattered Clouds
8:32 AM 39.6 °F 32.5 °F 31.6 °F 73% 29.59 in 10.0 mi WNW 11.5 mph - N/A   Scattered Clouds
8:52 AM 39.7 °F 32.3 °F 31.8 °F 73% 29.60 in 10.0 mi West 12.7 mph 23.0 mph N/A   Mostly Cloudy
9:12 AM 40.1 °F 32.7 °F 31.8 °F 72% 29.59 in 10.0 mi WNW 12.7 mph 21.9 mph N/A   Overcast
9:32 AM 40.1 °F 33.6 °F 31.8 °F 72% 29.60 in 10.0 mi WNW 10.4 mph 16.1 mph N/A   Overcast
9:52 AM 40.6 °F 33.0 °F 32.0 °F 71% 29.60 in 10.0 mi WNW 13.8 mph 18.4 mph N/A   Overcast
10:12 AM 40.6 °F 33.8 °F 32.0 °F 71% 29.60 in 10.0 mi WNW 11.5 mph 23.0 mph N/A   Overcast
10:32 AM 40.6 °F 32.3 °F 32.0 °F 71% 29.61 in 10.0 mi WNW 16.1 mph 26.5 mph N/A   Overcast
10:52 AM 41.0 °F 33.1 °F 32.0 °F 70% 29.61 in 10.0 mi West 15.0 mph 21.9 mph N/A   Overcast
11:12 AM 41.0 °F 34.3 °F 32.2 °F 71% 29.62 in 10.0 mi West 11.5 mph 21.9 mph N/A   Overcast
11:32 AM 42.4 °F 34.7 °F 32.4 °F 68% 29.63 in 10.0 mi WNW 16.1 mph 21.9 mph N/A   Overcast
11:52 AM 42.8 °F 35.8 °F 32.2 °F 66% 29.64 in 10.0 mi WNW 13.8 mph 25.3 mph N/A   Overcast
12:12 PM 42.6 °F 34.9 °F 32.0 °F 66% 29.65 in 10.0 mi West 16.1 mph 23.0 mph N/A   Overcast
12:32 PM 43.3 °F 36.1 °F 32.4 °F 65% 29.65 in 10.0 mi WNW 15.0 mph 23.0 mph N/A   Mostly Cloudy
12:52 PM 43.7 °F 36.6 °F 32.0 °F 63% 29.66 in 10.0 mi WNW 15.0 mph 23.0 mph N/A   Overcast
1:12 PM 43.7 °F 36.0 °F 32.0 °F 63% 29.67 in 10.0 mi WNW 17.3 mph 26.5 mph N/A   Overcast
1:32 PM 43.9 °F 35.9 °F 32.0 °F 63% 29.67 in 10.0 mi WNW 18.4 mph 27.6 mph N/A   Overcast
1:52 PM 43.7 °F 38.1 °F 32.0 °F 63% 29.67 in 10.0 mi WNW 10.4 mph 24.2 mph N/A   Mostly Cloudy
2:12 PM 44.1 °F 36.5 °F 32.0 °F 63% 29.67 in 10.0 mi WNW 17.3 mph 26.5 mph N/A   Mostly Cloudy
2:32 PM 45.0 °F 36.9 °F 31.6 °F 60% 29.67 in 10.0 mi WNW 20.7 mph 28.8 mph N/A   Scattered Clouds
2:52 PM 45.0 °F 36.9 °F 30.4 °F 57% 29.67 in 10.0 mi WNW 20.7 mph 31.1 mph N/A   Scattered Clouds
3:12 PM 44.8 °F 35.3 °F 28.6 °F 53% 29.67 in 10.0 mi WNW 27.6 mph 35.7 mph N/A   Scattered Clouds
3:32 PM 44.1 °F 35.0 °F 28.9 °F 55% 29.68 in 10.0 mi WNW 24.2 mph 29.9 mph N/A   Scattered Clouds
3:52 PM 43.9 °F 35.2 °F 28.4 °F 55% 29.69 in 10.0 mi West 21.9 mph 33.4 mph N/A   Mostly Cloudy
4:12 PM 43.7 °F 34.1 °F 27.5 °F 53% 29.70 in 10.0 mi WNW 26.5 mph 35.7 mph N/A   Mostly Cloudy
4:32 PM 43.0 °F 33.8 °F 28.2 °F 56% 29.71 in 10.0 mi WNW 23.0 mph 36.8 mph N/A   Scattered Clouds
4:52 PM 42.1 °F 32.1 °F 26.6 °F 54% 29.72 in 10.0 mi WNW 25.3 mph 38.0 mph N/A   Scattered Clouds
5:12 PM 41.4 °F 30.9 °F 26.6 °F 56% 29.73 in 10.0 mi WNW 26.5 mph 34.5 mph N/A   Clear
5:32 PM 41.0 °F 31.9 °F 26.8 °F 57% 29.74 in 10.0 mi WNW 19.6 mph 29.9 mph N/A   Clear
5:52 PM 41.0 °F 32.2 °F 26.4 °F 56% 29.75 in 10.0 mi NW 18.4 mph 26.5 mph N/A   Clear
6:12 PM 40.5 °F 32.1 °F 26.1 °F 57% 29.76 in 10.0 mi WNW 16.1 mph 24.2 mph N/A   Clear
6:32 PM 39.7 °F 30.9 °F 23.5 °F 52% 29.78 in 10.0 mi NW 17.3 mph 26.5 mph N/A   Clear
6:52 PM 38.5 °F 28.6 °F 23.0 °F 54% 29.80 in 10.0 mi WNW 19.6 mph 25.3 mph N/A   Clear
7:12 PM 37.8 °F 29.4 °F 22.1 °F 53% 29.82 in 10.0 mi NW 13.8 mph - N/A   Clear
7:32 PM 37.4 °F 30.3 °F 21.6 °F 53% 29.83 in 10.0 mi WNW 10.4 mph - N/A   Clear
7:52 PM 36.5 °F 29.7 °F 20.8 °F 53% 29.85 in 10.0 mi WNW 9.2 mph 16.1 mph N/A   Clear
8:12 PM 36.0 °F 28.5 °F 20.7 °F 54% 29.85 in 10.0 mi WNW 10.4 mph - N/A   Clear
8:32 PM 35.8 °F 28.3 °F 20.8 °F 55% 29.86 in 10.0 mi WNW 10.4 mph - N/A   Clear
8:52 PM 35.6 °F 28.0 °F 21.0 °F 55% 29.87 in 10.0 mi WNW 10.4 mph - N/A   Clear
9:12 PM 35.1 °F 27.4 °F 20.7 °F 56% 29.88 in 10.0 mi WNW 10.4 mph 16.1 mph N/A   Clear
9:32 PM 34.7 °F 25.9 °F 20.1 °F 55% 29.89 in 10.0 mi NW 12.7 mph 17.3 mph N/A   Clear
9:52 PM 34.0 °F 25.0 °F 18.5 °F 53% 29.90 in 10.0 mi NW 12.7 mph 19.6 mph N/A   Clear
10:12 PM 33.3 °F 23.7 °F 16.9 °F 51% 29.91 in 10.0 mi NW 13.8 mph 19.6 mph N/A   Clear
10:32 PM 32.9 °F 22.0 °F 16.5 °F 51% 29.92 in 10.0 mi NW 17.3 mph 24.2 mph N/A   Clear
10:52 PM 32.0 °F 23.0 °F 17.2 °F 55% 29.93 in 10.0 mi NNW 11.5 mph 19.6 mph N/A   Clear
11:12 PM 32.0 °F 24.8 °F 17.6 °F 55% 29.94 in 10.0 mi NW 8.1 mph - N/A   Clear
11:32 PM 31.3 °F 22.7 °F 17.6 °F 57% 29.95 in 10.0 mi NW 10.4 mph - N/A   Clear
11:52 PM 30.9 °F 22.8 °F 17.4 °F 57% 29.95 in 10.0 mi NW 9.2 mph 17.3 mph N/A   Clear